Regional Weather Roundup
Issued by NWS Burlington, VT

Home | Current Version | Previous Version | Text Only | Print | Product List | Glossary On
Versions: 1 2 3 4 5 6 7 8 9 10 11 12 13 14 15 16 17 18 19 20 21 22 23 24 25 26 27 28 29 30 31 32 33 34 35 36 37 38 39 40 41 42 43 44 45 46 47 48 49 50
000
ASUS41 KBTV 120230
RWRBTV
VERMONT REGIONAL WEATHER ROUNDUP
NATIONAL WEATHER SERVICE BURLINGTON VT
900 PM EST THU FEB 11 2016

NOTE: "FAIR" INDICATES FEW OR NO CLOUDS BELOW 12,000 FEET WITH NO
SIGNIFICANT WEATHER AND/OR OBSTRUCTIONS TO VISIBILITY.

* THESE REPORTS ARE NOT UNDER NWS QUALITY CONTROL AND/OR DO NOT
  REPORT WEATHER SUCH AS PRECIPITATION AND FOG.

VTZ001>019-120300-
_____VERMONT_____


CITY           SKY/WX    TMP DP  RH WIND       PRES   REMARKS
BURLINGTON     CLOUDY     3 -10  54 NW18G25   30.08R WCI -17
MONTPELIER     LGT SNOW   0  -5  79 NW9G21    29.96R WCI -15
MORRISVILLE    CLOUDY     1 -11  57 VRB7      30.02R WCI -12
ST. JOHNSBURY*   N/A      2 -10  57 MISG      29.95R
LYNDONVILLE*   CLOUDY    -2 -12  61 W10G24    29.93R WCI -18
RUTLAND*       CLOUDY     3  -9  55 W9G21     29.98R WCI -11
SPRINGFIELD    LGT SNOW   6  -1  73 CALM      29.98R
HIGHGATE*      CLOUDY     0  -8  71 W5        30.08R WCI -10
NEWPORT*       CLOUDY    -3 -12  65 W7G16     29.96R WCI -16
BENNINGTON     CLOUDY     7  -8  50 W13G22    30.00R WCI  -9
SUTTON*          N/A     -4 N/A N/A MISG        N/A
GALLUP MILLS*    N/A     -4 N/A N/A MISG        N/A
UNION VILLAGE*   N/A      5 N/A N/A MISG        N/A
MT. MANSFIELD*   N/A    -17 N/A N/A NW56        N/A  WCI -56

_____LAKE CHAMPLAIN_____


CITY           SKY/WX    TMP DP  RH WIND       PRES   REMARKS
COLCHESTER RF*   N/A      5  -4  66 NW23        N/A  WCI -17
DIAMOND ISL*     N/A      7  -8  51 NW13        N/A  WCI  -9

$$

NYZ007-026>031-035-052-083-120300-
_____NORTHERN NEW YORK_____


CITY           SKY/WX    TMP DP  RH WIND       PRES   REMARKS
PLATTSBURGH    CLOUDY     2 -12  52 CALM      30.08R
SARANAC LAKE   CLOUDY    -6 -11  79 VRB5      29.93R HAZE    WCI -17
MASSENA        PTCLDY    -4 -11  72 SW8       30.14R WCI -19
OGDENSBURG*    CLEAR     -9 -13  84 CALM      30.12S
WATERTOWN      CLEAR     -7 -12  79 NW5       30.15R WCI -18
ALBANY         PTCLDY    10  -5  50 NW12G17   30.10R WCI  -5
GLENS FALLS    CLOUDY     7 -10  46 NW9       30.08R WCI  -7

$$
NHZ002-005-011-120300-
_____NEW HAMPSHIRE_____


CITY           SKY/WX    TMP DP  RH WIND       PRES   REMARKS
LEBANON        MOCLDY     8  -3  61 N9        29.96R WCI  -5
MT WASHINGTON  BLWGSNOW -24 -24 100 W40G49      N/A  VSB 1/16WCI -62
PLYMOUTH       FAIR       5  -6  59 NW13G24   29.93R WCI -11
WHITEFIELD     CLOUDY     1  -6  72 NW6       29.92R HAZE    WCI -10

$$

_____REGIONAL QUEBEC LOCATIONS_____


CITY           SKY/WX    TMP DP  RH WIND       PRES   REMARKS
MONTREAL       FLURRIES   1  -8  66 W16G23    30.07R WCI -18
QUEBEC CITY    CLOUDY     1  -6  71 W20       29.87R WCI -20
SHERBROOKE     LGT SNOW  -2  -6  84 W15       29.92R WCI -22

_____REGIONAL ONTARIO LOCATIONS_____


CITY           SKY/WX    TMP DP  RH WIND       PRES   REMARKS
OTTAWA         CLEAR     -4 -11  71 W7        30.10R WCI -18

______KEY______
VSB  - VISIBILITY IN MILES
WCI  - WIND CHILL INDEX
HX   - HEAT INDEX
$$
NNNN



USA.gov is the U.S. government's official web portal to all federal, state and local government web resources and services.